Weather History for Big Bear City, CA

Change the Weather History Date:

Friday, February 10, 2012

  Actual Average (KBUO) Record (KBUO)
Temperature  
Mean Temperature 39 °F -  
Max Temperature 55 °F 56 °F 64 °F (1998)
Min Temperature 23 °F 40 °F 33 °F (1999)
Degree Days  
Heating Degree Days 26    
Moisture  
Dew Point 15 °F    
Average Humidity 46    
Maximum Humidity 80    
Minimum Humidity 14    
Precipitation  
Precipitation 0.00 in - - ()
Sea Level Pressure  
Sea Level Pressure 30.26 in    
Wind  
Wind Speed 3 mph (WSW)    
Max Wind Speed 13 mph    
Max Gust Speed 18 mph    
Visibility 10 miles    
Events      
Averages and records for this station are not official NWS values.
T = Trace of Precipitation, MM = Missing Value Source: NWS Daily Summary

Daily Weather History Graph

Daily Weather History Graph

Search for Another Location

Airport:

Trip Planner

Search our weather history database for the weather conditions in past years. The results will help you decide how hot, cold, wet, or windy it might be!

Date:

Astronomy

Feb. 10, 2012 Rise Set
Actual Time 6:37 AM PST 5:25 PM PST
Civil Twilight 6:11 AM PST 5:51 PM PST
Nautical Twilight 5:42 AM PST 6:21 PM PST
Astronomical Twilight 5:12 AM PST 6:50 PM PST
Moon 8:55 PM PST (2/10) 8:00 AM PST (2/10)
Length of Visible Light 11h 40m
Length of Day
10h 48m
Waning Gibbous, 89% of the Moon is Illuminated
Feb 10
Waning Gibbous
Feb 14
Last Quarter
Feb 21
New
Feb 29
First Quarter
Mar 8
Full

Hourly Weather History & Observations

Time (PST) Temp. Windchill Dew Point Humidity Pressure Visibility Wind Dir Wind Speed Gust Speed Precip Events Conditions
12:15 AM 26.6 °F - 15.8 °F 64% 30.32 in 10.0 mi Calm Calm - N/A   Clear
12:35 AM 26.6 °F - 14.0 °F 59% 30.31 in 10.0 mi Calm Calm - N/A   Clear
12:55 AM 26.6 °F - 15.8 °F 64% 30.31 in 10.0 mi Calm Calm - N/A   Clear
1:15 AM 26.6 °F - 15.8 °F 64% 30.31 in 10.0 mi Calm Calm - N/A   Clear
1:35 AM 26.6 °F - 15.8 °F 64% 30.31 in 10.0 mi Calm Calm - N/A   Clear
1:55 AM 26.6 °F - 15.8 °F 64% 30.31 in 10.0 mi Calm Calm - N/A   Clear
2:15 AM 24.8 °F - 15.8 °F 69% 30.31 in 10.0 mi Calm Calm - N/A   Clear
2:35 AM 24.8 °F - 15.8 °F 69% 30.32 in 10.0 mi Calm Calm - N/A   Clear
2:55 AM 24.8 °F - 15.8 °F 69% 30.31 in 10.0 mi Calm Calm - N/A   Clear
3:15 AM 24.8 °F - 15.8 °F 69% 30.30 in 10.0 mi Calm Calm - N/A   Clear
3:35 AM 24.8 °F 20.5 °F 15.8 °F 69% 30.30 in 10.0 mi West 3.5 mph - N/A   Clear
4:15 AM 24.8 °F - 17.6 °F 74% 30.30 in 10.0 mi Calm Calm - N/A   Clear
4:35 AM 23.0 °F - 17.6 °F 80% 30.30 in 10.0 mi Calm Calm - N/A   Clear
4:55 AM 23.0 °F - 14.0 °F 68% 30.30 in 10.0 mi Calm Calm - N/A   Clear
5:15 AM 23.0 °F - 14.0 °F 68% 30.30 in 10.0 mi Calm Calm - N/A   Clear
5:35 AM 23.0 °F - 15.8 °F 74% 30.30 in 10.0 mi Calm Calm - N/A   Clear
5:55 AM 23.0 °F - 15.8 °F 74% 30.30 in 10.0 mi Calm Calm - N/A   Clear
6:15 AM 23.0 °F - 17.6 °F 80% 30.31 in 10.0 mi Calm Calm - N/A   Clear
6:35 AM 23.0 °F - 14.0 °F 68% 30.31 in 10.0 mi Calm Calm - N/A   Clear
6:55 AM 23.0 °F - 14.0 °F 68% 30.31 in 10.0 mi Calm Calm - N/A   Clear
7:15 AM 23.0 °F - 17.6 °F 80% 30.31 in 10.0 mi Calm Calm - N/A   Clear
7:35 AM 24.8 °F - 15.8 °F 69% 30.31 in 10.0 mi Calm Calm - N/A   Clear
7:55 AM 28.4 °F 24.6 °F 19.4 °F 69% 30.31 in 10.0 mi West 3.5 mph - N/A   Clear
8:15 AM 32.0 °F 28.7 °F 21.2 °F 64% 30.31 in 10.0 mi West 3.5 mph - N/A   Clear
8:35 AM 35.6 °F 30.7 °F 21.2 °F 56% 30.31 in 10.0 mi West 5.8 mph - N/A   Clear
8:55 AM 39.2 °F 37.0 °F 21.2 °F 49% 30.31 in 10.0 mi West 3.5 mph - N/A   Clear
9:15 AM 42.8 °F 39.3 °F 19.4 °F 39% 30.31 in 10.0 mi West 5.8 mph - N/A   Clear
9:35 AM 46.4 °F 42.9 °F 17.6 °F 32% 30.31 in 10.0 mi West 6.9 mph - N/A   Clear
9:55 AM 51.8 °F - 10.4 °F 19% 30.31 in 10.0 mi West 10.4 mph - N/A   Clear
10:15 AM 51.8 °F - 14.0 °F 22% 30.31 in 10.0 mi West 9.2 mph - N/A   Clear
10:35 AM 53.6 °F - 14.0 °F 21% 30.31 in 10.0 mi West 8.1 mph - N/A   Clear
10:55 AM 55.4 °F - 8.6 °F 15% 30.31 in 10.0 mi SSW 8.1 mph - N/A   Clear
11:15 AM 55.4 °F - 10.4 °F 17% 30.30 in 10.0 mi WSW 8.1 mph - N/A   Clear
11:35 AM 55.4 °F - 12.2 °F 18% 30.30 in 10.0 mi WSW 10.4 mph - N/A   Clear
11:55 AM 55.4 °F - 8.6 °F 15% 30.29 in 10.0 mi SW 9.2 mph - N/A   Clear
12:15 PM 55.4 °F - 8.6 °F 15% 30.29 in 10.0 mi WSW 6.9 mph - N/A   Clear
12:35 PM 55.4 °F - 10.4 °F 17% 30.28 in 10.0 mi SW 3.5 mph - N/A   Clear
12:55 PM 55.4 °F - 6.8 °F 14% 30.26 in 10.0 mi SSW 6.9 mph - N/A   Clear
1:15 PM 55.4 °F - 8.6 °F 15% 30.25 in 10.0 mi SW 6.9 mph - N/A   Clear
1:35 PM 55.4 °F - 15.8 °F 21% 30.25 in 10.0 mi West 12.7 mph 16.1 mph N/A   Clear
1:55 PM 55.4 °F - 14.0 °F 20% 30.25 in 10.0 mi West 10.4 mph 18.4 mph N/A   Clear
2:15 PM 55.4 °F - 15.8 °F 21% 30.24 in 10.0 mi West 11.5 mph - N/A   Clear
2:35 PM 55.4 °F - 17.6 °F 23% 30.23 in 10.0 mi West 12.7 mph - N/A   Clear
2:55 PM 55.4 °F - 15.8 °F 21% 30.23 in 10.0 mi West 12.7 mph - N/A   Clear
3:15 PM 53.6 °F - 8.6 °F 16% 30.22 in 10.0 mi West 11.5 mph - N/A   Clear
3:35 PM 53.6 °F - 8.6 °F 16% 30.22 in 10.0 mi WSW 8.1 mph - N/A   Clear
3:55 PM 53.6 °F - 8.6 °F 16% 30.21 in 10.0 mi West 10.4 mph - N/A   Clear
4:15 PM 53.6 °F - 14.0 °F 21% 30.21 in 10.0 mi West 10.4 mph - N/A   Clear
4:35 PM 51.8 °F - 15.8 °F 24% 30.22 in 10.0 mi WSW 9.2 mph - N/A   Clear
4:55 PM 50.0 °F - 10.4 °F 20% 30.21 in 10.0 mi SW 6.9 mph - N/A   Clear
5:15 PM 48.2 °F - 14.0 °F 25% 30.21 in 10.0 mi SW 4.6 mph - N/A   Clear
5:35 PM 46.4 °F 45.2 °F 15.8 °F 29% 30.20 in 10.0 mi WSW 3.5 mph - N/A   Clear
5:55 PM 41.0 °F - 17.6 °F 39% 30.20 in 10.0 mi Calm Calm - N/A   Clear
6:15 PM 37.4 °F - 17.6 °F 45% 30.20 in 10.0 mi Calm Calm - N/A   Clear
6:35 PM 35.6 °F - 15.8 °F 44% 30.20 in 10.0 mi Calm Calm - N/A   Clear
6:55 PM 33.8 °F - 14.0 °F 44% 30.20 in 10.0 mi Calm Calm - N/A   Clear
7:15 PM 32.0 °F - 15.8 °F 51% 30.19 in 10.0 mi Calm Calm - N/A   Clear
7:35 PM 33.8 °F - 17.6 °F 52% 30.20 in 10.0 mi Calm Calm - N/A   Clear
7:55 PM 35.6 °F - 21.2 °F 56% 30.19 in 10.0 mi Calm Calm - N/A   Clear
8:15 PM 35.6 °F - 21.2 °F 56% 30.19 in 10.0 mi Calm Calm - N/A   Clear
8:55 PM 41.0 °F 37.1 °F 14.0 °F 33% 30.17 in 10.0 mi SW 5.8 mph - N/A   Clear
9:15 PM 39.2 °F 35.9 °F 14.0 °F 36% 30.17 in 10.0 mi WSW 4.6 mph - N/A   Clear
9:35 PM 39.2 °F 35.0 °F 17.6 °F 42% 30.16 in 10.0 mi West 5.8 mph - N/A   Clear
9:55 PM 37.4 °F 34.9 °F 17.6 °F 45% 30.16 in 10.0 mi WSW 3.5 mph - N/A   Scattered Clouds
10:15 PM 41.0 °F 38.0 °F 12.2 °F 31% 30.16 in 10.0 mi WSW 4.6 mph - N/A   Clear
10:35 PM 41.0 °F 38.0 °F 14.0 °F 33% 30.16 in 10.0 mi SW 4.6 mph - N/A   Clear
10:55 PM 41.0 °F 39.0 °F 14.0 °F 33% 30.16 in 10.0 mi SW 3.5 mph - N/A   Clear
11:15 PM 41.0 °F 37.1 °F 15.8 °F 36% 30.16 in 10.0 mi WSW 5.8 mph - N/A   Clear
11:35 PM 41.0 °F 37.1 °F 17.6 °F 39% 30.14 in 10.0 mi West 5.8 mph - N/A   Clear
11:55 PM 41.0 °F 36.4 °F 14.0 °F 33% 30.14 in 10.0 mi West 6.9 mph - N/A   Clear